Darstellungsparameter: Aktuell verwendete Einstellungen:
Skalierung der Graphiken ... ?
xyx+y,   Skalierungsfaktor:      Skalierung: Modus: x, Faktor: 1
Darstellungszeitraum ... ?
Vom - - bis: - -   Zeitraum: 28.02.2018 - 28.02.2018
Min/Max/Avg-Anzeige ... ?
Zeige MMA aktuell
Zeige MMA Monat
Zeige MMA alles
Zeige --A aktuell
Zeige --A Monat
Zeige --A alles
Keine MMA-Anzeige
MMA:
Average (ber die Originaldaten)
MMA-Basis: 28.02.2018 - 28.02.2018
Quicknavigation für Darstellung... ?
Tage:      1T, 2T, 3T, 5T -1T -2T -3T -5T +1T +2T +3T +5T
Wochen: 1W, 2W, 3W -1W -2W -3W +1W +2W +3W
Monate: 1M, 3M, 6M -1M -3M -6M +1M +3M +6M
Jahre:    1J, 3J, 5J, 10J -1J -3J -5J -10J +1J +3J +5J +10J
Nutze für die Darstellung ... ?
Originaldaten oder Mittelwerte auf ...
Stundenbasis Tagesbasis Wochenbasis
Monatsbasis Jahresbasis      Datenbasis: Original-Daten
Darstellen als:
Statistik (Auto) Statistik J:M      Darstellung:
Zur Graphik,    zurück zur Übersicht aller Sensoren.
 
Tabellarische Datenbersicht: ?
 
Sensor: Nr:Datum:Temp:Abs-Feuchte:Windchill:Wind:
Aussen-T/F 1 28-02-2018 00:00:00 -8.4 C 1.96 g/m*3 -8.4 C 3.2 km/h
2 28-02-2018 00:05:00 -8.4 C 1.96 g/m*3 -8.4 C 3.2 km/h
3 28-02-2018 00:10:00 -8.4 C 1.96 g/m*3 -8.4 C 1.6 km/h
4 28-02-2018 00:15:00 -8.3 C 1.98 g/m*3 -8.3 C 3.2 km/h
5 28-02-2018 00:20:00 -8.3 C 1.98 g/m*3 -8.3 C 0 km/h
6 28-02-2018 00:25:00 -8.3 C 1.95 g/m*3 -8.3 C 0 km/h
7 28-02-2018 00:30:00 -8.3 C 1.95 g/m*3 -8.3 C 4.8 km/h
8 28-02-2018 00:35:00 -8.3 C 1.95 g/m*3 -8.3 C 3.2 km/h
9 28-02-2018 00:40:00 -8.3 C 1.95 g/m*3 -8.3 C 4.8 km/h
10 28-02-2018 00:45:00 -8.4 C 1.94 g/m*3 -8.4 C 1.6 km/h
11 28-02-2018 00:50:00 -8.4 C 1.96 g/m*3 -8.4 C 3.2 km/h
12 28-02-2018 00:55:00 -8.4 C 1.96 g/m*3 -8.4 C 1.6 km/h
13 28-02-2018 01:00:00 -8.4 C 1.96 g/m*3 -8.4 C 3.2 km/h
14 28-02-2018 01:05:00 -8.4 C 1.96 g/m*3 -8.4 C 3.2 km/h
15 28-02-2018 01:10:00 -8.4 C 1.96 g/m*3 -8.4 C 3.2 km/h
16 28-02-2018 01:15:00 -8.5 C 1.92 g/m*3 -8.5 C 3.2 km/h
17 28-02-2018 01:20:00 -8.6 C 1.91 g/m*3 -8.6 C 3.2 km/h
18 28-02-2018 01:25:00 -8.5 C 1.95 g/m*3 -8.5 C 1.6 km/h
19 28-02-2018 01:30:00 -8.6 C 1.94 g/m*3 -8.6 C 3.2 km/h
20 28-02-2018 01:35:00 -8.6 C 1.94 g/m*3 -8.6 C 3.2 km/h
21 28-02-2018 01:40:00 -8.7 C 1.92 g/m*3 -8.7 C 1.6 km/h
22 28-02-2018 01:45:00 -8.7 C 1.92 g/m*3 -8.7 C 4.8 km/h
23 28-02-2018 01:50:00 -8.7 C 1.92 g/m*3 -8.7 C 3.2 km/h
24 28-02-2018 01:55:00 -8.8 C 1.91 g/m*3 -8.8 C 3.2 km/h
25 28-02-2018 02:00:00 -8.8 C 1.91 g/m*3 -8.8 C 3.2 km/h
Sensor: Nr:Datum:Temp:Abs-Feuchte:Windchill:Wind:
Aussen-T/F 26 28-02-2018 02:05:00 -8.8 C 1.91 g/m*3 -8.8 C 3.2 km/h
27 28-02-2018 02:10:00 -8.8 C 1.93 g/m*3 -8.8 C 3.2 km/h
28 28-02-2018 02:15:00 -8.9 C 1.89 g/m*3 -8.9 C 4.8 km/h
29 28-02-2018 02:20:00 -8.9 C 1.89 g/m*3 -8.9 C 3.2 km/h
30 28-02-2018 02:25:00 -8.9 C 1.89 g/m*3 -8.9 C 4.8 km/h
31 28-02-2018 02:30:00 -9 C 1.88 g/m*3 -9 C 4.8 km/h
32 28-02-2018 02:35:00 -9.1 C 1.89 g/m*3 -9.1 C 4.8 km/h
33 28-02-2018 02:40:00 -9.1 C 1.89 g/m*3 -9.1 C 4.8 km/h
34 28-02-2018 02:45:00 -9.1 C 1.89 g/m*3 -9.1 C 4.8 km/h
35 28-02-2018 02:50:00 -9.2 C 1.88 g/m*3 -9.2 C 4.8 km/h
36 28-02-2018 02:55:00 -9.2 C 1.88 g/m*3 -9.2 C 4.8 km/h
37 28-02-2018 03:00:00 -9.3 C 1.86 g/m*3 -9.3 C 4.8 km/h
38 28-02-2018 03:05:00 -9.3 C 1.89 g/m*3 -9.3 C 4.8 km/h
39 28-02-2018 03:10:00 -9.2 C 1.9 g/m*3 -9.2 C 4.8 km/h
40 28-02-2018 03:15:00 -9.2 C 1.88 g/m*3 -9.2 C 3.2 km/h
41 28-02-2018 03:20:00 -9.2 C 1.88 g/m*3 -9.2 C 3.2 km/h
42 28-02-2018 03:25:00 -9.2 C 1.88 g/m*3 -9.2 C 4.8 km/h
43 28-02-2018 03:30:00 -9.2 C 1.88 g/m*3 -9.2 C 4.8 km/h
44 28-02-2018 03:35:00 -9.3 C 1.86 g/m*3 -9.3 C 4.8 km/h
45 28-02-2018 03:40:00 -9.2 C 1.88 g/m*3 -9.2 C 4.8 km/h
46 28-02-2018 03:45:00 -9.2 C 1.88 g/m*3 -9.2 C 4.8 km/h
47 28-02-2018 03:50:00 -9.3 C 1.86 g/m*3 -9.3 C 3.2 km/h
48 28-02-2018 03:55:00 -9.2 C 1.88 g/m*3 -9.2 C 3.2 km/h
49 28-02-2018 04:00:00 -9.2 C 1.88 g/m*3 -12.81 C 6.4 km/h
50 28-02-2018 04:05:00 -9.3 C 1.86 g/m*3 -9.3 C 4.8 km/h
Sensor: Nr:Datum:Temp:Abs-Feuchte:Windchill:Wind:
Aussen-T/F 51 28-02-2018 04:10:00 -9.3 C 1.86 g/m*3 -9.3 C 3.2 km/h
52 28-02-2018 04:15:00 -9.3 C 1.89 g/m*3 -9.3 C 3.2 km/h
53 28-02-2018 04:20:00 -9.4 C 1.87 g/m*3 -9.4 C 4.8 km/h
54 28-02-2018 04:25:00 -9.4 C 1.87 g/m*3 -9.4 C 4.8 km/h
55 28-02-2018 04:30:00 -9.5 C 1.86 g/m*3 -9.5 C 4.8 km/h
56 28-02-2018 04:35:00 -9.5 C 1.86 g/m*3 -9.5 C 3.2 km/h
57 28-02-2018 04:40:00 -9.5 C 1.86 g/m*3 -9.5 C 4.8 km/h
58 28-02-2018 04:45:00 -9.6 C 1.84 g/m*3 -9.6 C 0 km/h
59 28-02-2018 04:50:00 -9.6 C 1.87 g/m*3 -9.6 C 3.2 km/h
60 28-02-2018 04:55:00 -9.5 C 1.88 g/m*3 -9.5 C 3.2 km/h
61 28-02-2018 05:00:00 -9.5 C 1.88 g/m*3 -9.5 C 3.2 km/h
62 28-02-2018 05:05:00 -9.6 C 1.87 g/m*3 -9.6 C 4.8 km/h
63 28-02-2018 05:10:00 -9.6 C 1.87 g/m*3 -9.6 C 3.2 km/h
64 28-02-2018 05:15:00 -9.6 C 1.87 g/m*3 -9.6 C 0 km/h
65 28-02-2018 05:20:00 -9.6 C 1.89 g/m*3 -9.6 C 0 km/h
66 28-02-2018 05:25:00 -9.6 C 1.87 g/m*3 -9.6 C 3.2 km/h
67 28-02-2018 05:30:00 -9.6 C 1.87 g/m*3 -9.6 C 1.6 km/h
68 28-02-2018 05:35:00 -9.6 C 1.89 g/m*3 -9.6 C 0 km/h
69 28-02-2018 05:40:00 -9.7 C 1.88 g/m*3 -9.7 C 1.6 km/h
70 28-02-2018 05:45:00 -9.7 C 1.88 g/m*3 -9.7 C 3.2 km/h
71 28-02-2018 05:50:00 -9.7 C 1.88 g/m*3 -9.7 C 0 km/h
72 28-02-2018 05:55:00 -9.7 C 1.88 g/m*3 -9.7 C 0 km/h
73 28-02-2018 06:00:00 -9.8 C 1.89 g/m*3 -9.8 C 0 km/h
74 28-02-2018 06:05:00 -9.8 C 1.89 g/m*3 -9.8 C 3.2 km/h
75 28-02-2018 06:10:00 -9.8 C 1.89 g/m*3 -9.8 C 1.6 km/h
Sensor: Nr:Datum:Temp:Abs-Feuchte:Windchill:Wind:
Aussen-T/F 76 28-02-2018 06:15:00 -9.9 C 1.87 g/m*3 -9.9 C 3.2 km/h
77 28-02-2018 06:20:00 -9.9 C 1.87 g/m*3 -9.9 C 1.6 km/h
78 28-02-2018 06:25:00 -10 C 1.86 g/m*3 -10 C 0 km/h
79 28-02-2018 06:30:00 -10 C 1.86 g/m*3 -10 C 1.6 km/h
80 28-02-2018 06:35:00 -10.1 C 1.85 g/m*3 -10.1 C 1.6 km/h
81 28-02-2018 06:40:00 -10.1 C 1.85 g/m*3 -10.1 C 0 km/h
82 28-02-2018 06:45:00 -10.1 C 1.85 g/m*3 -10.1 C 1.6 km/h
83 28-02-2018 06:50:00 -10.1 C 1.85 g/m*3 -10.1 C 0 km/h
84 28-02-2018 06:55:00 -10.1 C 1.85 g/m*3 -10.1 C 0 km/h
85 28-02-2018 07:00:00 -10.1 C 1.85 g/m*3 -10.1 C 0 km/h
86 28-02-2018 07:05:00 -10.1 C 1.85 g/m*3 -10.1 C 0 km/h
87 28-02-2018 07:10:00 -10.1 C 1.85 g/m*3 -10.1 C 0 km/h
88 28-02-2018 07:15:00 -10.1 C 1.85 g/m*3 -10.1 C 0 km/h
89 28-02-2018 07:20:00 -10.1 C 1.85 g/m*3 -10.1 C 1.6 km/h
90 28-02-2018 07:25:00 -10.1 C 1.85 g/m*3 -10.1 C 3.2 km/h
91 28-02-2018 07:30:00 -10.1 C 1.85 g/m*3 -10.1 C 1.6 km/h
92 28-02-2018 07:35:00 -10.1 C 1.85 g/m*3 -10.1 C 0 km/h
93 28-02-2018 07:40:00 -10.1 C 1.85 g/m*3 -10.1 C 0 km/h
94 28-02-2018 07:45:00 -10.1 C 1.85 g/m*3 -10.1 C 0 km/h
95 28-02-2018 07:50:00 -10.1 C 1.85 g/m*3 -10.1 C 0 km/h
96 28-02-2018 07:55:00 -10 C 1.88 g/m*3 -10 C 3.2 km/h
97 28-02-2018 08:00:00 -9.9 C 1.87 g/m*3 -9.9 C 1.6 km/h
98 28-02-2018 08:05:00 -9.8 C 1.89 g/m*3 -9.8 C 1.6 km/h
99 28-02-2018 08:10:00 -9.8 C 1.89 g/m*3 -9.8 C 0 km/h
100 28-02-2018 08:15:00 -9.7 C 1.9 g/m*3 -9.7 C 1.6 km/h
Sensor: Nr:Datum:Temp:Abs-Feuchte:Windchill:Wind:
Aussen-T/F 101 28-02-2018 08:20:00 -9.7 C 1.9 g/m*3 -9.7 C 1.6 km/h
102 28-02-2018 08:25:00 -9.7 C 1.9 g/m*3 -9.7 C 0 km/h
103 28-02-2018 08:30:00 -9.6 C 1.92 g/m*3 -9.6 C 0 km/h
104 28-02-2018 08:35:00 -9.4 C 1.92 g/m*3 -14.97 C 11.3 km/h
105 28-02-2018 08:40:00 -9.1 C 1.92 g/m*3 -12.69 C 6.4 km/h
106 28-02-2018 08:45:00 -8.8 C 1.96 g/m*3 -8.8 C 3.2 km/h
107 28-02-2018 08:50:00 -8.8 C 1.93 g/m*3 -13.12 C 8.1 km/h
108 28-02-2018 08:55:00 -8.7 C 1.95 g/m*3 -8.7 C 3.2 km/h
109 28-02-2018 09:00:00 -8.7 C 1.95 g/m*3 -8.7 C 3.2 km/h
110 28-02-2018 09:05:00 -8.6 C 1.94 g/m*3 -12.88 C 8.1 km/h
111 28-02-2018 09:10:00 -8.4 C 1.96 g/m*3 -8.4 C 4.8 km/h
112 28-02-2018 09:15:00 -8.3 C 1.98 g/m*3 -8.3 C 3.2 km/h
113 28-02-2018 09:20:00 -8.3 C 1.95 g/m*3 -11.77 C 6.4 km/h
114 28-02-2018 09:25:00 -8.2 C 1.94 g/m*3 -8.2 C 3.2 km/h
115 28-02-2018 09:30:00 -8.1 C 1.95 g/m*3 -12.29 C 8.1 km/h
116 28-02-2018 09:35:00 -8.1 C 1.95 g/m*3 -11.54 C 6.4 km/h
117 28-02-2018 09:40:00 -7.9 C 1.96 g/m*3 -12.06 C 8.1 km/h
118 28-02-2018 09:45:00 -7.8 C 1.97 g/m*3 -7.8 C 3.2 km/h
119 28-02-2018 09:50:00 -7.8 C 1.97 g/m*3 -7.8 C 4.8 km/h
120 28-02-2018 09:55:00 -7.7 C 1.96 g/m*3 -12.41 C 9.7 km/h
121 28-02-2018 10:00:00 -7.6 C 1.97 g/m*3 -12.29 C 9.7 km/h
122 28-02-2018 10:05:00 -7.4 C 1.97 g/m*3 -13.42 C 14.5 km/h
123 28-02-2018 10:10:00 -7.3 C 1.99 g/m*3 -10.61 C 6.4 km/h
124 28-02-2018 10:15:00 -7.3 C 1.96 g/m*3 -10.61 C 6.4 km/h
125 28-02-2018 10:20:00 -7.2 C 1.97 g/m*3 -7.2 C 3.2 km/h
Sensor: Nr:Datum:Temp:Abs-Feuchte:Windchill:Wind:
Aussen-T/F 126 28-02-2018 10:25:00 -7.1 C 1.99 g/m*3 -11.7 C 9.7 km/h
127 28-02-2018 10:30:00 -6.9 C 1.96 g/m*3 -12.81 C 14.5 km/h
128 28-02-2018 10:35:00 -6.9 C 1.96 g/m*3 -11.46 C 9.7 km/h
129 28-02-2018 10:40:00 -6.8 C 1.97 g/m*3 -13.38 C 17.7 km/h
130 28-02-2018 10:45:00 -6.7 C 1.99 g/m*3 -6.7 C 4.8 km/h
131 28-02-2018 10:50:00 -6.6 C 1.97 g/m*3 -11.1 C 9.7 km/h
132 28-02-2018 10:55:00 -6.5 C 1.98 g/m*3 -10.98 C 9.7 km/h
133 28-02-2018 11:00:00 -6.4 C 1.97 g/m*3 -12.88 C 17.7 km/h
134 28-02-2018 11:05:00 -6.3 C 1.98 g/m*3 -12.07 C 14.5 km/h
135 28-02-2018 11:10:00 -6.2 C 2 g/m*3 -10.06 C 8.1 km/h
136 28-02-2018 11:15:00 -6 C 2 g/m*3 -9.82 C 8.1 km/h
137 28-02-2018 11:20:00 -5.9 C 2.01 g/m*3 -10.27 C 9.7 km/h
138 28-02-2018 11:25:00 -5.8 C 1.96 g/m*3 -10.63 C 11.3 km/h
139 28-02-2018 11:30:00 -5.7 C 2.04 g/m*3 -11.33 C 14.5 km/h
140 28-02-2018 11:35:00 -5.6 C 1.99 g/m*3 -9.91 C 9.7 km/h
141 28-02-2018 11:40:00 -5.5 C 2 g/m*3 -9.24 C 8.1 km/h
142 28-02-2018 11:45:00 -5.4 C 2.02 g/m*3 -10.15 C 11.3 km/h
143 28-02-2018 11:50:00 -5.3 C 1.97 g/m*3 -9.55 C 9.7 km/h
144 28-02-2018 11:55:00 -5.3 C 2 g/m*3 -10.03 C 11.3 km/h
145 28-02-2018 12:00:00 -5.2 C 1.98 g/m*3 -11.06 C 16.1 km/h
146 28-02-2018 12:05:00 -5.1 C 1.99 g/m*3 -9.79 C 11.3 km/h
147 28-02-2018 12:10:00 -4.9 C 2.02 g/m*3 -9.07 C 9.7 km/h
148 28-02-2018 12:15:00 -4.8 C 2 g/m*3 -9.43 C 11.3 km/h
149 28-02-2018 12:20:00 -4.7 C 1.98 g/m*3 -10.44 C 16.1 km/h
150 28-02-2018 12:25:00 -4.7 C 1.98 g/m*3 -8.84 C 9.7 km/h
Sensor: Nr:Datum:Temp:Abs-Feuchte:Windchill:Wind:
Aussen-T/F 151 28-02-2018 12:30:00 -4.5 C 2.05 g/m*3 -9.86 C 14.5 km/h
152 28-02-2018 12:35:00 -4.5 C 1.98 g/m*3 -10.8 C 19.3 km/h
153 28-02-2018 12:40:00 -4.4 C 2.03 g/m*3 -7.94 C 8.1 km/h
154 28-02-2018 12:45:00 -4.4 C 1.96 g/m*3 -10.07 C 16.1 km/h
155 28-02-2018 12:50:00 -4.4 C 1.99 g/m*3 -8.95 C 11.3 km/h
156 28-02-2018 12:55:00 -4.3 C 2.01 g/m*3 -9.61 C 14.5 km/h
157 28-02-2018 13:00:00 -4.2 C 2.02 g/m*3 -9.12 C 12.9 km/h
158 28-02-2018 13:05:00 -4 C 2.01 g/m*3 -9.24 C 14.5 km/h
159 28-02-2018 13:10:00 -3.9 C 2.03 g/m*3 -10.31 C 20.9 km/h
160 28-02-2018 13:15:00 -3.8 C 2.04 g/m*3 -9.63 C 17.7 km/h
161 28-02-2018 13:20:00 -3.7 C 2.02 g/m*3 -7.64 C 9.7 km/h
162 28-02-2018 13:25:00 -3.6 C 1.96 g/m*3 -9.08 C 16.1 km/h
163 28-02-2018 13:30:00 -3.5 C 1.93 g/m*3 -7.41 C 9.7 km/h
164 28-02-2018 13:35:00 -3.3 C 1.92 g/m*3 -8.02 C 12.9 km/h
165 28-02-2018 13:40:00 -3.3 C 1.92 g/m*3 -8.02 C 12.9 km/h
166 28-02-2018 13:45:00 -3.3 C 1.92 g/m*3 -8.02 C 12.9 km/h
167 28-02-2018 13:50:00 -3.2 C 1.9 g/m*3 -7.9 C 12.9 km/h
168 28-02-2018 13:55:00 -3.3 C 1.81 g/m*3 -9.01 C 17.7 km/h
169 28-02-2018 14:00:00 -3.3 C 1.88 g/m*3 -9.8 C 22.5 km/h
170 28-02-2018 14:05:00 -3.2 C 1.9 g/m*3 -7.5 C 11.3 km/h
171 28-02-2018 14:10:00 -3.2 C 1.86 g/m*3 -8.58 C 16.1 km/h
172 28-02-2018 14:15:00 -3.3 C 1.85 g/m*3 -9.01 C 17.7 km/h
173 28-02-2018 14:20:00 -3.3 C 1.88 g/m*3 -7.62 C 11.3 km/h
174 28-02-2018 14:25:00 -3.3 C 1.92 g/m*3 -7.62 C 11.3 km/h
175 28-02-2018 14:30:00 -3.3 C 1.85 g/m*3 -8.38 C 14.5 km/h
Sensor: Nr:Datum:Temp:Abs-Feuchte:Windchill:Wind:
Aussen-T/F 176 28-02-2018 14:35:00 -3.3 C 1.88 g/m*3 -7.17 C 9.7 km/h
177 28-02-2018 14:40:00 -3.2 C 1.9 g/m*3 -8.26 C 14.5 km/h
178 28-02-2018 14:45:00 -3.1 C 1.91 g/m*3 -8.76 C 17.7 km/h
179 28-02-2018 14:50:00 -3.1 C 1.91 g/m*3 -8.46 C 16.1 km/h
180 28-02-2018 14:55:00 -3 C 1.92 g/m*3 -7.26 C 11.3 km/h
181 28-02-2018 15:00:00 -3 C 1.92 g/m*3 -8.34 C 16.1 km/h
182 28-02-2018 15:05:00 -3 C 1.89 g/m*3 -7.26 C 11.3 km/h
183 28-02-2018 15:10:00 -3 C 1.96 g/m*3 -8.34 C 16.1 km/h
184 28-02-2018 15:15:00 -3 C 1.92 g/m*3 -8.34 C 16.1 km/h
185 28-02-2018 15:20:00 -2.9 C 1.94 g/m*3 -7.14 C 11.3 km/h
186 28-02-2018 15:25:00 -2.8 C 1.99 g/m*3 -6.57 C 9.7 km/h
187 28-02-2018 15:30:00 -2.7 C 2.01 g/m*3 -7.64 C 14.5 km/h
188 28-02-2018 15:35:00 -2.7 C 2.05 g/m*3 -7.64 C 14.5 km/h
189 28-02-2018 15:40:00 -2.6 C 2.06 g/m*3 -7.17 C 12.9 km/h
190 28-02-2018 15:45:00 -2.6 C 2.02 g/m*3 -7.52 C 14.5 km/h
191 28-02-2018 15:50:00 -2.6 C 2.06 g/m*3 -7.52 C 14.5 km/h
192 28-02-2018 15:55:00 -2.5 C 2.08 g/m*3 -6.65 C 11.3 km/h
193 28-02-2018 16:00:00 -2.4 C 2.05 g/m*3 -5.59 C 8.1 km/h
194 28-02-2018 16:05:00 -2.4 C 2.05 g/m*3 -6.1 C 9.7 km/h
195 28-02-2018 16:10:00 -2.4 C 2.01 g/m*3 -4.95 C 6.4 km/h
196 28-02-2018 16:15:00 -2.4 C 2.05 g/m*3 -6.53 C 11.3 km/h
197 28-02-2018 16:20:00 -2.4 C 2.01 g/m*3 -6.53 C 11.3 km/h
198 28-02-2018 16:25:00 -2.6 C 1.98 g/m*3 -8.9 C 22.5 km/h
199 28-02-2018 16:30:00 -2.7 C 2.05 g/m*3 -7.64 C 14.5 km/h
200 28-02-2018 16:35:00 -2.6 C 2.06 g/m*3 -7.17 C 12.9 km/h
Sensor: Nr:Datum:Temp:Abs-Feuchte:Windchill:Wind:
Aussen-T/F 201 28-02-2018 16:40:00 -2.7 C 2.01 g/m*3 -8.79 C 20.9 km/h
202 28-02-2018 16:45:00 -2.9 C 2.06 g/m*3 -7.53 C 12.9 km/h
203 28-02-2018 16:50:00 -3 C 2 g/m*3 -7.26 C 11.3 km/h
204 28-02-2018 16:55:00 -3.1 C 2.03 g/m*3 -8.13 C 14.5 km/h
205 28-02-2018 17:00:00 -3.2 C 2.01 g/m*3 -5.88 C 6.4 km/h
206 28-02-2018 17:05:00 -3.3 C 2 g/m*3 -6.65 C 8.1 km/h
207 28-02-2018 17:10:00 -3.4 C 2.06 g/m*3 -6.11 C 6.4 km/h
208 28-02-2018 17:15:00 -3.4 C 1.99 g/m*3 -7.74 C 11.3 km/h
209 28-02-2018 17:20:00 -3.4 C 2.02 g/m*3 -3.4 C 4.8 km/h
210 28-02-2018 17:25:00 -3.4 C 2.02 g/m*3 -7.29 C 9.7 km/h
211 28-02-2018 17:30:00 -3.4 C 1.99 g/m*3 -7.74 C 11.3 km/h
212 28-02-2018 17:35:00 -3.4 C 2.02 g/m*3 -3.4 C 4.8 km/h
213 28-02-2018 17:40:00 -3.4 C 1.99 g/m*3 -7.74 C 11.3 km/h
214 28-02-2018 17:45:00 -3.6 C 2.03 g/m*3 -3.6 C 4.8 km/h
215 28-02-2018 17:50:00 -3.6 C 2 g/m*3 -7 C 8.1 km/h
216 28-02-2018 17:55:00 -3.8 C 2 g/m*3 -6.57 C 6.4 km/h
217 28-02-2018 18:00:00 -4 C 1.98 g/m*3 -6.8 C 6.4 km/h
218 28-02-2018 18:05:00 -4.2 C 1.98 g/m*3 -7.03 C 6.4 km/h
219 28-02-2018 18:10:00 -4.3 C 2.01 g/m*3 -7.82 C 8.1 km/h
220 28-02-2018 18:15:00 -4.4 C 1.99 g/m*3 -8.48 C 9.7 km/h
221 28-02-2018 18:20:00 -4.6 C 1.96 g/m*3 -9.6 C 12.9 km/h
222 28-02-2018 18:25:00 -4.7 C 1.98 g/m*3 -11.32 C 20.9 km/h
223 28-02-2018 18:30:00 -4.8 C 2.04 g/m*3 -4.8 C 3.2 km/h
224 28-02-2018 18:35:00 -4.9 C 1.99 g/m*3 -4.9 C 4.8 km/h
225 28-02-2018 18:40:00 -5 C 2.01 g/m*3 -5 C 4.8 km/h
Sensor: Nr:Datum:Temp:Abs-Feuchte:Windchill:Wind:
Aussen-T/F 226 28-02-2018 18:45:00 -5.2 C 1.98 g/m*3 -9.43 C 9.7 km/h
227 28-02-2018 18:50:00 -5.3 C 2.03 g/m*3 -5.3 C 4.8 km/h
228 28-02-2018 18:55:00 -5.4 C 2.02 g/m*3 -5.4 C 3.2 km/h
229 28-02-2018 19:00:00 -5.5 C 2 g/m*3 -9.24 C 8.1 km/h
230 28-02-2018 19:05:00 -5.6 C 2.02 g/m*3 -5.6 C 4.8 km/h
231 28-02-2018 19:10:00 -5.6 C 2.02 g/m*3 -10.82 C 12.9 km/h
232 28-02-2018 19:15:00 -5.6 C 2.02 g/m*3 -9.91 C 9.7 km/h
233 28-02-2018 19:20:00 -5.6 C 2.02 g/m*3 -9.91 C 9.7 km/h
234 28-02-2018 19:25:00 -5.7 C 2.01 g/m*3 -5.7 C 4.8 km/h
235 28-02-2018 19:30:00 -5.7 C 2.04 g/m*3 -12.01 C 17.7 km/h
236 28-02-2018 19:35:00 -5.8 C 2.02 g/m*3 -8.88 C 6.4 km/h
237 28-02-2018 19:40:00 -5.8 C 2.02 g/m*3 -5.8 C 4.8 km/h
238 28-02-2018 19:45:00 -5.9 C 2.01 g/m*3 -10.75 C 11.3 km/h
239 28-02-2018 19:50:00 -5.9 C 2.01 g/m*3 -12.26 C 17.7 km/h
240 28-02-2018 19:55:00 -5.9 C 2.04 g/m*3 -10.75 C 11.3 km/h
241 28-02-2018 20:00:00 -5.9 C 2.04 g/m*3 -9 C 6.4 km/h
242 28-02-2018 20:05:00 -6 C 2 g/m*3 -11.31 C 12.9 km/h
243 28-02-2018 20:10:00 -6 C 2.03 g/m*3 -10.39 C 9.7 km/h
244 28-02-2018 20:15:00 -6.1 C 2.04 g/m*3 -9.94 C 8.1 km/h
245 28-02-2018 20:20:00 -6.2 C 2.03 g/m*3 -11.12 C 11.3 km/h
246 28-02-2018 20:25:00 -6.2 C 2.03 g/m*3 -6.2 C 4.8 km/h
247 28-02-2018 20:30:00 -6.2 C 2.03 g/m*3 -10.06 C 8.1 km/h
248 28-02-2018 20:35:00 -6.3 C 2.01 g/m*3 -9.46 C 6.4 km/h
249 28-02-2018 20:40:00 -6.3 C 2.05 g/m*3 -10.74 C 9.7 km/h
250 28-02-2018 20:45:00 -6.3 C 2.05 g/m*3 -10.74 C 9.7 km/h
Sensor: Nr:Datum:Temp:Abs-Feuchte:Windchill:Wind:
Aussen-T/F 251 28-02-2018 20:50:00 -6.4 C 2.03 g/m*3 -6.4 C 4.8 km/h
252 28-02-2018 20:55:00 -6.4 C 2.03 g/m*3 -6.4 C 3.2 km/h
253 28-02-2018 21:00:00 -6.4 C 2.03 g/m*3 -10.29 C 8.1 km/h
254 28-02-2018 21:05:00 -6.3 C 2.05 g/m*3 -10.74 C 9.7 km/h
255 28-02-2018 21:10:00 -6.3 C 2.05 g/m*3 -10.18 C 8.1 km/h
256 28-02-2018 21:15:00 -6.4 C 2.06 g/m*3 -6.4 C 4.8 km/h
257 28-02-2018 21:20:00 -6.4 C 2.06 g/m*3 -9.57 C 6.4 km/h
258 28-02-2018 21:25:00 -6.3 C 2.05 g/m*3 -11.24 C 11.3 km/h
259 28-02-2018 21:30:00 -6.3 C 2.01 g/m*3 -10.74 C 9.7 km/h
260 28-02-2018 21:35:00 -6.3 C 2.01 g/m*3 -10.74 C 9.7 km/h
261 28-02-2018 21:40:00 -6.2 C 2.03 g/m*3 -10.06 C 8.1 km/h
262 28-02-2018 21:45:00 -6.3 C 2.05 g/m*3 -6.3 C 4.8 km/h
263 28-02-2018 21:50:00 -6.4 C 2.03 g/m*3 -6.4 C 4.8 km/h
264 28-02-2018 21:55:00 -6.4 C 2.03 g/m*3 -10.29 C 8.1 km/h
265 28-02-2018 22:00:00 -6.5 C 2.05 g/m*3 -6.5 C 1.6 km/h
266 28-02-2018 22:05:00 -6.6 C 2.03 g/m*3 -11.1 C 9.7 km/h
267 28-02-2018 22:10:00 -6.5 C 2.02 g/m*3 -10.41 C 8.1 km/h
268 28-02-2018 22:15:00 -6.5 C 2.05 g/m*3 -6.5 C 3.2 km/h
269 28-02-2018 22:20:00 -6.6 C 2.03 g/m*3 -11.1 C 9.7 km/h
270 28-02-2018 22:25:00 -6.6 C 2.03 g/m*3 -9.81 C 6.4 km/h
271 28-02-2018 22:30:00 -6.6 C 2 g/m*3 -6.6 C 4.8 km/h
272 28-02-2018 22:35:00 -6.6 C 2.03 g/m*3 -9.81 C 6.4 km/h
273 28-02-2018 22:40:00 -6.5 C 2.02 g/m*3 -11.48 C 11.3 km/h
274 28-02-2018 22:45:00 -6.4 C 2.03 g/m*3 -10.29 C 8.1 km/h
275 28-02-2018 22:50:00 -6.4 C 2.03 g/m*3 -10.29 C 8.1 km/h
Sensor: Nr:Datum:Temp:Abs-Feuchte:Windchill:Wind:
Aussen-T/F 276 28-02-2018 22:55:00 -6.4 C 2.03 g/m*3 -6.4 C 3.2 km/h
277 28-02-2018 23:00:00 -6.4 C 2.03 g/m*3 -6.4 C 3.2 km/h
278 28-02-2018 23:05:00 -6.5 C 2.02 g/m*3 -9.69 C 6.4 km/h
279 28-02-2018 23:10:00 -6.5 C 2.02 g/m*3 -6.5 C 4.8 km/h
280 28-02-2018 23:15:00 -6.4 C 2.03 g/m*3 -6.4 C 3.2 km/h
281 28-02-2018 23:20:00 -6.4 C 2.06 g/m*3 -11.8 C 12.9 km/h
282 28-02-2018 23:25:00 -6.4 C 2.06 g/m*3 -6.4 C 4.8 km/h
283 28-02-2018 23:30:00 -6.5 C 2.05 g/m*3 -6.5 C 3.2 km/h
284 28-02-2018 23:35:00 -6.6 C 2.06 g/m*3 -6.6 C 3.2 km/h
285 28-02-2018 23:40:00 -6.6 C 2.03 g/m*3 -6.6 C 1.6 km/h
286 28-02-2018 23:45:00 -6.6 C 2.06 g/m*3 -12.04 C 12.9 km/h
287 28-02-2018 23:50:00 -6.6 C 2.03 g/m*3 -6.6 C 1.6 km/h
288 28-02-2018 23:55:00 -6.5 C 2.05 g/m*3 -9.69 C 6.4 km/h

Legende:
   Min
   Max


Maximal/Minimal-Werte vom 28.02.2018 - 28.02.2018

Sensor Min Max Avg
Temp
(Aussen-T/F)
-10.1 °C
28-02-2018  06:35:00
-2.4 °C
28-02-2018  16:00:00
-6.71 °C
Abs-Feuchte
(Aussen-T/F)
1.81 g/m*3
28-02-2018  13:55:00
2.08 g/m*3
28-02-2018  15:55:00
1.95 g/m*3
Windchill
(Aussen-T/F)
-14.97 C
28-02-2018  08:35:00
-3.4 C
28-02-2018  17:20:00
-8.98 C

Die Daten stammen von einer Davis Vantage Pro 2 Wetter-Station und werden unter Linux mit der Software wview2wettercgi und aufbereitet. Alle Angaben erfolgen ohne Gewähr für ihre Vollständigkeit oder Richtigkeit.
Kontakt: Rainer Krienke krienke@uni-koblenz.de . Meine Webseiten an der Uni Koblenz oder privat.
Version: $Revision: 0.78 $